NOAA 17 DEB, 49478

Orbit data source: Space-Track

NOAA 17 DEB, 49478 is space debris in SSO originally from a launch on Mon, 24 Jun 2002 UTC launched from the Air Force Western Test Range (AFWTR). Debris objects in space refer to the collection of defunct objects orbiting the Earth. Examples of debris include non-operational satellites, rocket bodies, and fragments generated from explosions, collisions, or faulty payload assembly.

Loading next visibility...
Identifier
49478, 2002-032DG
Orbit
SSO
Country
Flag of USUS
Related business
Manufacturer
Unknown
Mission
Spacecraft
Bus & Motor
Unknown
Mass
Unknown
Launch date (UTC)
2002-06-24 (23 years ago)
Launch vehicle
Unknown
Launch site
Air Force Western Test Range (AFWTR)
Object type
Payload
Rocket body
Debris
Shape & HBR
Unknown shape, 0.1 m
Radar Cross Section
Small (<0.1 m²)

Expand to show TLE details & history
Last TLE update: 1 day ago

TLE from 1 day ago
0 NOAA 17 DEB
1 49478U 02032DG  25349.50600208  .00008199  00000-0  16170-2 0  9997
2 49478  98.8613   4.9451 0006686  32.4905 327.6705 14.62747223237461
Epoch: 2025-12-15T12:08Z
TLE epoch observation values (Epoch: 2025-12-15T12:08:38.579Z)
Latitude
-0.00003°
Longitude
98.38077°
Altitude
683.295 km
Speed
7.517 km/s
True Right ascension
00h 19m 46s
True Declination
0° 00' 00"
Sunlit
Object was in daylight at epoch
Visualization orbit readout
Latitude
Unknown
Longitude
Unknown
Altitude
Unknown
Speed
Unknown
Apparent Right ascension
Unknown
Apparent Declination
Unknown
Sunlit
N/A
Visualization observer readout
Local Sidereal Time
11:30:55
Azimuth
Unknown
Elevation
Unknown
Doppler factor
Unknown
Orbital elements
Apogee altitude
686.147 km
Perigee altitude
676.706 km
Semi-major axis
7,059.564 km
Eccentricity
0.00067
Inclination
98.8613°
RAAN
4.9451°
Arg. of periapsis
32.4905°
True anomaly
327.6295°
Mean anomaly
327.6705°
Eccentric anomaly
327.65°
Mean motion
3.65912 °/min
Orbital period
98.38 mins
BSTAR
0.001617
Loading maneuver chart data...
Computing Atmospheric mass density...
Loading historical data...
Loading historical data...
Loading historical data...
Loading historical data...
Loading historical data...
Loading historical data...
Loading historical data...

Documentation

Showing up to 5 results
|